Location: Buckeye Ditch
(40.9104°N, 122.9517°W)
Time: 15:26:28
(UTC+00:00)

A-11 Canister half - Pass Details

Date: 27 May 2025
Orbit: 1515 x 1684 km, 47.2° (Epoch: 14 June)

Event Time Altitude Azimuth Distance (km) Brightness Sun altitude
Rises 07:12:34 0° 258° (WSW) 4,803 11.6 -26.4°
Reaches altitude 10° 07:15:44 10° 261° (W) 3,795 11.1 -26.5°
Maximum altitude 07:25:18 68° 344° (NNW) 1,653 9.2 -26.9°
Drops below altitude 10° 07:34:35 10° 68° (ENE) 3,691 11.1 -27.2°
Sets 07:37:39 0° 71° (ENE) 4,665 11.7 -27.3°
